Flag Weather past 2 weeks in Bristol, Tennessee, U.S.A.

Now
35 °F

Overcast.


Feels Like: 27 °F
Forecast: 27 / 38 °F
Wind: 9 mph from Northwest

Location: Abingdon-Southwest Abingdon

Current Time: Nov 27, 2014 at 1:41:05 PM

Latest Report: Nov 27, 2014 at 1:15 PM


Visibility: 10 mi

Pressure: 30.16 "Hg

Humidity: 81%

Dew point: 29 °F

Location of BristolLocation

Historic Weather in Bristol — Graph

°F

Bristol temperature yesterday

Maximum temperature yesterday: 46 °F (at 3:15 AM)
Minimum temperature yesterday: 35 °F (at 7:55 PM)
Average temperature yesterday: 40 °F

Past Weeks' High & Low Weather Summary

 TemperatureHumidityPressure
High71 °F (Nov 24, 2:15 PM)100% (Nov 17, 7:35 AM)30.43 "Hg (Nov 17, 7:35 AM)
Low15 °F (Nov 19, 5:55 AM)17% (Nov 22, 3:15 PM)29.59 "Hg (Nov 23, 9:15 PM)
Average38 °F63%30.10 "Hg
* Reported Nov 12 12:15 PM — Nov 27 12:15 PM, Bristol, Weather by CustomWeather, © 2014

Note: Actual official high and low records may vary slightly from our data, if they occured in-between our weather recording intervals... More about our weather records

Advertising

Bristol weather history for previous 24 hours

 ConditionsComfort  
Time TempWeatherWind HumidityBarometerVisibility
12:15 PM
Nov 27
35 °FMostly cloudy.7 mph83%30.16 "Hg10 mi
11:55 AM35 °FMostly cloudy.6 mph83%30.15 "Hg10 mi
11:15 AM35 °FOvercast.10 mph84%30.14 "Hg10 mi
10:55 AM35 °FLight snow. More clouds than sun.3 mph85%30.14 "Hg7 mi
10:35 AM35 °FLight snow. Mostly cloudy.3 mph88%30.13 "Hg7 mi
10:15 AM35 °FLight snow. Overcast.5 mph88%30.11 "Hg7 mi
9:55 AM35 °FLight snow. Overcast.8 mph90%30.10 "Hg5 mi
9:15 AM35 °FLight snow. Overcast.3 mph100%30.07 "Hg5 mi
8:55 AM35 °FLight snow. Mostly cloudy.No wind100%30.06 "Hg3 mi
8:15 AM35 °FLow clouds.5 mph100%30.04 "Hg10 mi
7:55 AM34 °FFog.5 mph100%30.03 "Hg4 mi
7:35 AM34 °FLight snow. Low clouds.3 mph100%30.02 "Hg2 mi
7:15 AM34 °FLight snow. Low clouds.5 mph100%30.02 "Hg2 mi
6:55 AM34 °FLight snow. Low clouds.6 mph100%30.00 "Hg2 mi
6:35 AM34 °FLight rain. Low clouds.No wind100%29.99 "Hg7 mi
6:15 AM34 °FLight snow. Low clouds.3 mph100%29.99 "Hg1 mi
5:55 AM34 °FLight snow. Low clouds.3 mph100%29.98 "Hg1 mi
5:15 AM34 °FLight snow. Low clouds.No wind100%29.97 "Hg1 mi
4:55 AM35 °FLight snow. Low clouds.No wind98%29.97 "Hg1 mi
4:15 AM35 °FLight snow. Mostly cloudy.No wind97%29.97 "Hg2 mi
3:55 AM35 °FLight snow. Overcast.No wind95%29.96 "Hg5 mi
3:15 AM36 °FLight rain. Mostly cloudy.3 mph91%29.96 "Hg10 mi
2:55 AM37 °FMostly cloudy.No wind88%29.95 "Hg10 mi
2:15 AM37 °FMostly cloudy.No wind83%29.96 "Hg10 mi
1:55 AM38 °FOvercast.3 mph82%29.96 "Hg10 mi
1:35 AM37 °FMostly cloudy.5 mph93%29.97 "Hg10 mi
1:15 AM36 °FMostly cloudy.6 mph100%29.98 "Hg7 mi
12:55 AM35 °FFog.No wind99%29.98 "Hg2 mi
12:15 AM35 °FFog.No wind100%29.98 "Hg2 mi
11:55 PM
Nov 26
35 °FFog.No wind100%29.98 "Hg2 mi
11:35 PM36 °FFog.No wind100%29.99 "Hg3 mi
11:15 PM35 °FFog.No wind99%29.98 "Hg2 mi
10:55 PM35 °FFog.No wind99%29.98 "Hg2 mi
10:35 PM35 °FFog.No wind99%29.98 "Hg2 mi
10:15 PM35 °FFog.No wind99%29.98 "Hg2 mi
9:55 PM36 °FFog.No wind99%29.98 "Hg3 mi
9:35 PM36 °FFog.No wind100%29.99 "Hg3 mi
9:15 PM35 °FFog.No wind99%29.99 "Hg3 mi
8:55 PM35 °FFog.No wind99%29.99 "Hg3 mi
8:15 PM35 °FFog.No wind98%30.00 "Hg4 mi
7:55 PM35 °FFog.No wind98%30.00 "Hg4 mi
7:15 PM36 °FFog.No wind97%29.99 "Hg5 mi
6:55 PM36 °FFog.No wind95%29.99 "Hg5 mi
6:15 PM38 °FPassing clouds.No wind92%29.99 "Hg10 mi
5:55 PM38 °FPassing clouds.No wind92%29.99 "Hg10 mi
5:35 PM40 °FClear.No wind86%29.99 "Hg10 mi
5:15 PM41 °FClear.3 mph83%29.99 "Hg10 mi
4:55 PM42 °FSunny.3 mph79%29.99 "Hg10 mi
4:15 PM43 °FBroken clouds.3 mph74%29.99 "Hg10 mi
3:55 PM42 °FMore clouds than sun.No wind82%29.99 "Hg10 mi
3:35 PM42 °FMore clouds than sun.3 mph86%29.99 "Hg10 mi
3:15 PM41 °FMostly cloudy.5 mph85%29.99 "Hg10 mi
2:55 PM41 °FOvercast.6 mph88%29.98 "Hg10 mi
2:35 PM41 °FMore clouds than sun.6 mph91%29.98 "Hg10 mi
2:15 PM41 °FMostly cloudy.7 mph91%29.98 "Hg10 mi
1:55 PM41 °FLow clouds.7 mph91%29.99 "Hg10 mi
1:35 PM41 °FLow clouds.8 mph93%29.99 "Hg10 mi
1:15 PM40 °FLow clouds.6 mph93%29.99 "Hg10 mi
Weather by CustomWeather, © 2014

See weather overviewHow to use our weather pages